Flag for Germany Weather past 2 weeks in Merseburg, Saxony-Anhalt, Germany

Now
64 °F

Partly sunny.


Feels Like: 64 °F
Forecast: 55 / 78 °F
Wind: 3 mph from Southwest

Location: Leipzig-Schkeuditz

Current Time: Aug 28, 2015 at 2:47:05 PM

Latest Report: Aug 28, 2015 at 2:20 PM


Visibility: N/A

Pressure: 30.09 "Hg

Humidity: 73%

Dew point: 55 °F

Location of MerseburgLocation

Historic Weather in Merseburg — Graph

°F

Merseburg temperature yesterday

Maximum temperature yesterday: 81 °F (at 12:50 PM)
Minimum temperature yesterday: 61 °F (at 5:20 AM)
Average temperature yesterday: 71 °F

Past Weeks' High & Low Weather Summary

 TemperatureHumidityPressure
High95 °F (Aug 14, 3:50 PM)100% (Aug 16, 1:20 AM)30.30 "Hg (Aug 16, 1:20 AM)
Low54 °F (Aug 21, 4:20 AM)23% (Aug 14, 5:20 PM)29.68 "Hg (Aug 14, 5:20 PM)
Average67 °F76%29.96 "Hg
* Reported Aug 13 1:20 PM — Aug 28 1:50 PM, Merseburg, Weather by CustomWeather, © 2015

Note: Actual official high and low records may vary slightly from our data, if they occured in-between our weather recording intervals... More about our weather records

Advertising

Merseburg weather history for previous 24 hours

 ConditionsComfort  
Time TempWeatherWind HumidityBarometerVisibility
1:50 PM
Fri, Aug 28
64 °FBroken clouds.3 mph78%30.09 "HgN/A
1:20 PM63 °FBroken clouds.2 mph77%30.09 "HgN/A
12:50 PM63 °FBroken clouds.3 mph77%30.07 "HgN/A
12:20 PM61 °FBroken clouds.3 mph88%30.07 "HgN/A
11:50 AM61 °FBroken clouds.2 mph88%30.07 "HgN/A
11:20 AM61 °FBroken clouds.5 mph88%30.07 "HgN/A
10:50 AM59 °FBroken clouds.5 mph94%30.04 "HgN/A
10:20 AM59 °FBroken clouds.5 mph94%30.04 "HgN/A
9:50 AM59 °FLight rain. Broken clouds.6 mph94%30.04 "HgN/A
9:20 AM57 °FDrizzle. More clouds than sun.9 mph100%30.01 "Hg4 mi
8:50 AM57 °FDrizzle. Fog.8 mph100%30.01 "Hg3 mi
8:20 AM57 °FDrizzle. Fog.9 mph100%29.98 "Hg2 mi
7:50 AM57 °FDrizzle. Fog.10 mph100%29.98 "Hg2 mi
7:20 AM57 °FLight rain. Fog.13 mph100%29.95 "Hg2 mi
6:50 AM57 °FLight rain. Mostly cloudy.12 mph100%29.95 "Hg4 mi
6:20 AM61 °FLight rain. Mostly cloudy.14 mph100%29.95 "Hg6 mi
5:50 AM63 °FLight rain. Partly cloudy.9 mph100%29.92 "Hg4 mi
5:20 AM64 °FLight rain. Partly cloudy.9 mph100%29.89 "HgN/A
4:50 AM63 °FLight rain. Partly cloudy.9 mph100%29.89 "HgN/A
4:20 AM63 °FLight rain. Partly cloudy.7 mph94%29.89 "HgN/A
3:50 AM63 °FLight rain. Partly cloudy.9 mph94%29.89 "HgN/A
3:20 AM63 °FLight rain. Mostly cloudy.8 mph94%29.89 "HgN/A
2:50 AM63 °FLight rain. Clear.6 mph94%29.86 "HgN/A
2:20 AM64 °FLight rain. Passing clouds.6 mph88%29.86 "HgN/A
1:50 AM63 °FClear.3 mph94%29.86 "Hg10 mi
1:20 AM63 °FClear.2 mph94%29.86 "Hg10 mi
12:20 AM64 °FClear.10 mph88%29.86 "Hg10 mi
11:50 PM
Thu, Aug 27
64 °FLight rain. Clear.10 mph88%29.89 "HgN/A
11:20 PM64 °FClear.13 mph88%29.86 "Hg10 mi
10:50 PM66 °FClear.17 mph83%29.86 "Hg10 mi
10:20 PM68 °FClear.13 mph78%29.83 "Hg10 mi
9:50 PM68 °FClear.12 mph73%29.80 "Hg10 mi
9:20 PM72 °FClear.3 mph69%29.80 "Hg10 mi
8:50 PM72 °FSunny.5 mph73%29.77 "Hg10 mi
8:20 PM72 °FSunny.7 mph73%29.77 "Hg10 mi
7:50 PM75 °FSunny.5 mph61%29.77 "Hg10 mi
7:20 PM75 °FPassing clouds.5 mph61%29.80 "HgN/A
6:50 PM77 °FSunny.5 mph61%29.80 "Hg10 mi
6:20 PM77 °FSunny.6 mph57%29.80 "Hg10 mi
5:50 PM77 °FPassing clouds.7 mph57%29.80 "HgN/A
5:20 PM79 °FPartly sunny.6 mph51%29.83 "HgN/A
4:50 PM79 °FPartly sunny.7 mph54%29.83 "HgN/A
4:20 PM77 °FSunny.5 mph54%29.86 "Hg10 mi
3:50 PM77 °FSunny.5 mph51%29.86 "Hg10 mi
3:20 PM77 °FBroken clouds.6 mph54%29.86 "HgN/A
2:50 PM79 °FBroken clouds.12 mph48%29.89 "HgN/A
2:20 PM81 °FScattered clouds.8 mph48%29.89 "HgN/A
Weather by CustomWeather, © 2015

See weather overviewHow to use our weather pages